Location: Rounton
(54.4000°N, 1.3500°W)
Time: 21:29:54
(UTC+01:00)

deb Delta 126 - Pass Details

Date: 10 July 2022
Orbit: 1120 x 1970 km, 101.5° (Epoch: 17 August)

Event Time Altitude Azimuth Distance (km) Brightness Sun altitude
Rises 02:02:43 0° 48° (NE) 4,983 ? -12.5°
Reaches altitude 10° 02:06:43 10° 32° (NNE) 4,117 ? -12.4°
Maximum altitude 02:12:57 19° 353° (N) 3,576 ? -12.2°
Drops below altitude 10° 02:19:32 10° 315° (NW) 4,374 ? -11.9°
Sets 02:23:59 0° 300° (WNW) 5,402 ? -11.7°
